QPF
0.00 0.00 0.00 0.00 0.00 0.00 0.00 0.00 0.00 0.00 0.00 0.00 0.00 0.00 0.00 0.00 0.00 0.00 0.00 0.00 0.00 0.00 0.00 0.00 0.00 0.00 0.00 0.00 0.00 0.00 0.00 0.00 0.00 0.00 0.00 0.00 0.00 0.00 0.00 0.00 0.00 0.00 0.00
0.00 0.00 0.00 0.00 0.00 0.00 0.00 0.00 0.00 0.00 0.00 0.00 0.00 0.00 0.00 0.00 0.00 0.00 0.00 0.00 0.00 0.00 0.00 0.00 0.00 0.00 0.00 0.00 0.00 0.00 0.00 0.00 0.00 0.00 0.00 0.00 0.00 0.00 0.00 0.00 0.00 0.00 0.00
0.00 0.00 0.00 0.00 0.00 0.00 0.00 0.00 0.00 0.00 0.00 0.00 0.00 0.00 0.00 0.00 0.00 0.00 0.00 0.00 0.00 0.00 0.00 0.00 0.00 0.00 0.00 0.00 0.00 0.00 0.00 0.00 0.00 0.00 0.00 0.00 0.00 0.00 0.00 0.00 0.00 0.00 0.00
0.00 0.00 0.00 0.00 0.00 0.00 0.00 0.00 0.00 0.00 0.00 0.00 0.00 0.00 0.00 0.00 0.00 0.00 0.00 0.00 0.00 0.00 0.00 0.00 0.00 0.00 0.00 0.00 0.00 0.00 0.00 0.00 0.00 0.00 0.00 0.00 0.00 0.00 0.00 0.00 0.00 0.00 0.00
0.00 0.00 0.00 0.00 0.00 0.00 0.00 0.00 0.00 0.00 0.00 0.00 0.00 0.00 0.00 0.00 0.00 0.00 0.00 0.00 0.00 0.00 0.00 0.00 0.00 0.00 0.00 0.00 0.00 0.00 0.00 0.00 0.00 0.00 0.00 0.00 0.00 0.00 0.00 0.00 0.00 0.00 0.00
0.00 0.00 0.00 0.00 0.00 0.00 0.00 0.00 0.00 0.00 0.00 0.00 0.00 0.00 0.00 0.00 0.00 0.00 0.00 0.00 0.00 0.00 0.00 0.00 0.00 0.00 0.00 0.00 0.00 0.00 0.00 0.00 0.00 0.00 0.00 0.00 0.00 0.00 0.00 0.00 0.00 0.00 0.00
0.00 0.00 0.00 0.00 0.00 0.00 0.00 0.00 0.00 0.00 0.00 0.00 0.00 0.00 0.00 0.00 0.00 0.00 0.00 0.00 0.00 0.00 0.00 0.00 0.00 0.00 0.00 0.00 0.00 0.00 0.00 0.00 0.00 0.00 0.00 0.00 0.00 0.00 0.00 0.00 0.00 0.00 0.00
0.00 0.00 0.00 0.00 0.00 0.00 0.00 0.00 0.00 0.00 0.00 0.00 0.00 0.00 0.00 0.00 0.00 0.00 0.00 0.00 0.00 0.00 0.00 0.00 0.00 0.00 0.00 0.00 0.00 0.00 0.00 0.00 0.00 0.00 0.00 0.00 0.00 0.00 0.00 0.00 0.00 0.01 0.00
0.00 0.00 0.00 0.00 0.00 0.00 0.00 0.00 0.00 0.00 0.00 0.00 0.00 0.00 0.00 0.00 0.00 0.00 0.00 0.00 0.00 0.00 0.00 0.00 0.00 0.00 0.00 0.00 0.00 0.00 0.00 0.00 0.00 0.00 0.00 0.00 0.00 0.00 0.00 0.00 0.00 0.02 0.02
0.00 0.00 0.00 0.00 0.00 0.00 0.00 0.00 0.00 0.00 0.00 0.00 0.00 0.00 0.00 0.00 0.00 0.00 0.00 0.00 0.00 0.00 0.00 0.00 0.00 0.00 0.00 0.00 0.00 0.00 0.00 0.00 0.00 0.00 0.00 0.00 0.00 0.00 0.00 0.00 0.00 0.01 0.03
0.00 0.00 0.00 0.00 0.00 0.00 0.00 0.00 0.00 0.00 0.00 0.00 0.00 0.00 0.00 0.00 0.00 0.00 0.00 0.00 0.00 0.00 0.00 0.00 0.00 0.00 0.00 0.00 0.00 0.00 0.00 0.00 0.00 0.00 0.00 0.00 0.00 0.00 0.00 0.00 0.00 0.01 0.02
0.00 0.00 0.00 0.00 0.00 0.00 0.00 0.00 0.00 0.00 0.00 0.00 0.00 0.00 0.00 0.00 0.00 0.00 0.00 0.00 0.00 0.00 0.00 0.00 0.00 0.00 0.00 0.00 0.00 0.00 0.00 0.00 0.00 0.00 0.00 0.00 0.00 0.00 0.00 0.00 0.01 0.01 0.01
0.00 0.00 0.00 0.00 0.00 0.00 0.00 0.00 0.00 0.00 0.00 0.00 0.00 0.00 0.00 0.00 0.00 0.00 0.00 0.00 0.00 0.00 0.00 0.00 0.00 0.00 0.00 0.00 0.00 0.00 0.01 0.00 0.00 0.00 0.00 0.00 0.00 0.00 0.00 0.01 0.01 0.01 0.01
0.00 0.00 0.00 0.00 0.00 0.00 0.00 0.00 0.00 0.00 0.00 0.00 0.00 0.00 0.00 0.00 0.00 0.00 0.00 0.00 0.00 0.00 0.00 0.00 0.00 0.00 0.00 0.00 0.01 0.01 0.01 0.01 0.01 0.00 0.00 0.00 0.01 0.01 0.01 0.01 0.01 0.01 0.03
0.00 0.00 0.00 0.00 0.00 0.00 0.00 0.00 0.00 0.00 0.00 0.00 0.00 0.00 0.00 0.00 0.00 0.00 0.00 0.00 0.00 0.00 0.00 0.00 0.00 0.00 0.01 0.01 0.01 0.01 0.01 0.01 0.01 0.01 0.00 0.01 0.01 0.01 0.02 0.03 0.04 0.06 0.09
0.00 0.00 0.00 0.00 0.00 0.00 0.00 0.00 0.00 0.00 0.00 0.00 0.00 0.00 0.00 0.00 0.00 0.00 0.00 0.00 0.00 0.00 0.00 0.00 0.00 0.01 0.01 0.01 0.01 0.01 0.01 0.01 0.01 0.01 0.00 0.00 0.00 0.01 0.01 0.03 0.04 0.06 0.09
0.00 0.00 0.00 0.00 0.00 0.00 0.00 0.00 0.00 0.00 0.00 0.00 0.00 0.00 0.00 0.00 0.00 0.00 0.00 0.00 0.00 0.00 0.00 0.00 0.00 0.01 0.01 0.01 0.02 0.01 0.01 0.00 0.00 0.01 0.00 0.00 0.00 0.00 0.01 0.01 0.01 0.02 0.02
0.00 0.00 0.00 0.00 0.00 0.00 0.00 0.00 0.00 0.00 0.00 0.00 0.00 0.00 0.00 0.00 0.00 0.00 0.00 0.00 0.00 0.00 0.00 0.00 0.01 0.01 0.01 0.02 0.01 0.01 0.01 0.00 0.00 0.00 0.01 0.01 0.00 0.00 0.01 0.01 0.02 0.02 0.01
0.00 0.00 0.00 0.00 0.00 0.00 0.00 0.00 0.00 0.00 0.00 0.00 0.00 0.00 0.00 0.00 0.00 0.00 0.00 0.00 0.00 0.00 0.00 0.01 0.01 0.01 0.01 0.02 0.01 0.01 0.01 0.01 0.01 0.00 0.01 0.01 0.01 0.01 0.02 0.04 0.04 0.03 0.02
0.00 0.00 0.00 0.00 0.00 0.00 0.00 0.00 0.00 0.00 0.00 0.00 0.00 0.00 0.00 0.00 0.00 0.00 0.00 0.00 0.00 0.00 0.00 0.01 0.01 0.01 0.01 0.01 0.01 0.01 0.01 0.01 0.01 0.01 0.00 0.00 0.01 0.01 0.02 0.04 0.05 0.04 0.02
0.00 0.00 0.00 0.00 0.00 0.00 0.00 0.00 0.00 0.00 0.00 0.00 0.00 0.00 0.00 0.00 0.00 0.00 0.00 0.00 0.00 0.00 0.00 0.01 0.01 0.01 0.01 0.01 0.01 0.01 0.01 0.01 0.01 0.01 0.00 0.00 0.01 0.01 0.02 0.04 0.05 0.04 0.04
0.00 0.00 0.00 0.00 0.00 0.00 0.00 0.00 0.00 0.00 0.00 0.00 0.00 0.00 0.00 0.00 0.00 0.00 0.00 0.00 0.00 0.00 0.01 0.01 0.01 0.01 0.01 0.01 0.01 0.01 0.01 0.01 0.01 0.01 0.00 0.00 0.01 0.02 0.02 0.03 0.03 0.03 0.04
0.00 0.00 0.00 0.00 0.00 0.00 0.00 0.00 0.00 0.00 0.00 0.00 0.00 0.00 0.00 0.00 0.00 0.00 0.00 0.00 0.00 0.00 0.01 0.01 0.01 0.01 0.01 0.01 0.01 0.01 0.01 0.01 0.01 0.00 0.00 0.01 0.01 0.01 0.01 0.01 0.01 0.01 0.01
0.00 0.00 0.00 0.00 0.00 0.00 0.00 0.00 0.00 0.00 0.00 0.00 0.00 0.00 0.00 0.00 0.00 0.00 0.00 0.00 0.00 0.01 0.01 0.01 0.01 0.01 0.01 0.01 0.01 0.01 0.01 0.01 0.01 0.01 0.00 0.01 0.01 0.00 0.00 0.00 0.00 0.00 0.00
0.00 0.00 0.00 0.00 0.00 0.00 0.00 0.00 0.00 0.00 0.00 0.00 0.00 0.00 0.00 0.00 0.00 0.00 0.00 0.00 0.01 0.01 0.01 0.01 0.01 0.01 0.01 0.01 0.01 0.01 0.01 0.01 0.01 0.01 0.01 0.01 0.00 0.00 0.00 0.00 0.00 0.00 0.00
0.00 0.00 0.00 0.00 0.00 0.00 0.00 0.00 0.00 0.00 0.00 0.00 0.00 0.00 0.00 0.00 0.00 0.00 0.00 0.00 0.01 0.01 0.01 0.01 0.01 0.01 0.01 0.01 0.01 0.01 0.01 0.01 0.01 0.01 0.01 0.00 0.00 0.00 0.00 0.00 0.00 0.00 0.00
MSLP
1011.64 1012.40 1013.22 1014.06 1014.89 1015.71 1016.52 1017.30 1018.07 1018.79 1019.47 1020.08 1020.61 1021.08 1021.48 1021.85 1022.21 1022.58 1022.97 1023.39 1023.83 1024.28 1024.70 1025.09 1025.44 1025.74 1026.00 1026.23 1026.43 1026.61 1026.75 1026.84 1026.86 1026.80 1026.65 1026.42 1026.12 1025.79 1025.47 1025.17 1024.94 1024.76 1024.64
1010.80 1011.53 1012.30 1013.10 1013.89 1014.67 1015.44 1016.20 1016.94 1017.65 1018.32 1018.92 1019.46 1019.92 1020.33 1020.70 1021.06 1021.44 1021.85 1022.30 1022.77 1023.26 1023.74 1024.18 1024.58 1024.92 1025.21 1025.47 1025.69 1025.89 1026.05 1026.17 1026.22 1026.19 1026.06 1025.84 1025.54 1025.19 1024.83 1024.48 1024.19 1023.97 1023.81
1010.20 1010.86 1011.56 1012.28 1012.99 1013.70 1014.40 1015.11 1015.81 1016.50 1017.15 1017.75 1018.28 1018.73 1019.12 1019.47 1019.80 1020.16 1020.56 1021.01 1021.50 1022.02 1022.54 1023.03 1023.48 1023.87 1024.20 1024.49 1024.75 1024.98 1025.18 1025.34 1025.44 1025.47 1025.40 1025.22 1024.96 1024.62 1024.25 1023.88 1023.54 1023.27 1023.06
1009.82 1010.38 1010.98 1011.59 1012.20 1012.80 1013.42 1014.06 1014.71 1015.36 1015.99 1016.57 1017.08 1017.50 1017.86 1018.16 1018.45 1018.76 1019.12 1019.54 1020.02 1020.55 1021.09 1021.63 1022.12 1022.57 1022.96 1023.31 1023.62 1023.90 1024.16 1024.38 1024.55 1024.66 1024.67 1024.57 1024.38 1024.09 1023.74 1023.36 1022.99 1022.67 1022.40
1009.59 1010.05 1010.54 1011.02 1011.50 1011.99 1012.51 1013.06 1013.65 1014.25 1014.85 1015.40 1015.88 1016.27 1016.57 1016.81 1017.04 1017.27 1017.56 1017.93 1018.38 1018.90 1019.46 1020.02 1020.57 1021.08 1021.54 1021.95 1022.32 1022.67 1023.00 1023.31 1023.57 1023.77 1023.88 1023.89 1023.78 1023.57 1023.26 1022.90 1022.51 1022.14 1021.80
1009.48 1009.84 1010.20 1010.55 1010.89 1011.25 1011.64 1012.10 1012.61 1013.16 1013.71 1014.23 1014.67 1015.01 1015.26 1015.44 1015.58 1015.74 1015.96 1016.26 1016.66 1017.15 1017.71 1018.30 1018.89 1019.46 1019.99 1020.47 1020.92 1021.34 1021.75 1022.14 1022.50 1022.80 1023.03 1023.14 1023.14 1023.01 1022.76 1022.43 1022.04 1021.63 1021.22
1009.43 1009.68 1009.92 1010.13 1010.33 1010.55 1010.83 1011.17 1011.60 1012.08 1012.58 1013.05 1013.45 1013.75 1013.95 1014.06 1014.14 1014.22 1014.36 1014.59 1014.94 1015.40 1015.95 1016.56 1017.19 1017.80 1018.39 1018.94 1019.46 1019.96 1020.44 1020.91 1021.36 1021.76 1022.09 1022.31 1022.41 1022.37 1022.19 1021.90 1021.52 1021.08 1020.62
1009.41 1009.57 1009.68 1009.76 1009.82 1009.89 1010.04 1010.27 1010.60 1011.00 1011.44 1011.87 1012.23 1012.49 1012.65 1012.71 1012.73 1012.75 1012.83 1013.00 1013.31 1013.73 1014.27 1014.88 1015.53 1016.18 1016.82 1017.42 1018.00 1018.56 1019.10 1019.64 1020.16 1020.64 1021.05 1021.37 1021.56 1021.60 1021.49 1021.25 1020.89 1020.44 1019.95
1009.42 1009.47 1009.47 1009.41 1009.33 1009.27 1009.27 1009.39 1009.61 1009.93 1010.30 1010.68 1011.00 1011.23 1011.36 1011.40 1011.39 1011.37 1011.41 1011.55 1011.81 1012.21 1012.72 1013.33 1013.98 1014.65 1015.31 1015.95 1016.56 1017.16 1017.75 1018.33 1018.90 1019.44 1019.92 1020.30 1020.57 1020.69 1020.65 1020.45 1020.13 1019.70 1019.19
1009.44 1009.40 1009.28 1009.09 1008.87 1008.68 1008.56 1008.55 1008.66 1008.89 1009.19 1009.51 1009.79 1010.00 1010.11 1010.14 1010.12 1010.09 1010.11 1010.22 1010.46 1010.83 1011.32 1011.91 1012.55 1013.22 1013.89 1014.54 1015.17 1015.79 1016.40 1017.01 1017.61 1018.18 1018.70 1019.13 1019.45 1019.63 1019.65 1019.52 1019.24 1018.84 1018.35
1009.48 1009.34 1009.12 1008.81 1008.47 1008.15 1007.91 1007.78 1007.79 1007.93 1008.15 1008.40 1008.64 1008.82 1008.92 1008.94 1008.92 1008.89 1008.91 1009.01 1009.24 1009.58 1010.05 1010.61 1011.23 1011.88 1012.53 1013.17 1013.80 1014.43 1015.05 1015.67 1016.28 1016.87 1017.41 1017.88 1018.24 1018.46 1018.53 1018.45 1018.22 1017.87 1017.42
1009.55 1009.32 1008.99 1008.58 1008.14 1007.71 1007.36 1007.13 1007.04 1007.08 1007.20 1007.38 1007.56 1007.70 1007.78 1007.79 1007.77 1007.75 1007.77 1007.87 1008.08 1008.40 1008.84 1009.36 1009.95 1010.57 1011.20 1011.83 1012.45 1013.07 1013.69 1014.32 1014.94 1015.54 1016.09 1016.58 1016.96 1017.22 1017.33 1017.30 1017.12 1016.82 1016.42
1009.62 1009.32 1008.91 1008.41 1007.88 1007.38 1006.94 1006.62 1006.43 1006.37 1006.40 1006.49 1006.59 1006.67 1006.70 1006.69 1006.65 1006.63 1006.64 1006.74 1006.93 1007.23 1007.63 1008.12 1008.67 1009.25 1009.86 1010.47 1011.08 1011.70 1012.32 1012.95 1013.58 1014.19 1014.76 1015.25 1015.65 1015.93 1016.07 1016.08 1015.95 1015.70 1015.35
1009.69 1009.32 1008.84 1008.29 1007.70 1007.14 1006.64 1006.24 1005.97 1005.81 1005.74 1005.73 1005.73 1005.72 1005.68 1005.62 1005.55 1005.50 1005.50 1005.57 1005.74 1006.02 1006.39 1006.84 1007.35 1007.90 1008.48 1009.07 1009.68 1010.30 1010.93 1011.57 1012.21 1012.83 1013.41 1013.91 1014.32 1014.61 1014.77 1014.80 1014.70 1014.50 1014.21
1009.72 1009.29 1008.77 1008.18 1007.57 1006.97 1006.44 1005.99 1005.64 1005.39 1005.22 1005.08 1004.97 1004.85 1004.72 1004.58 1004.44 1004.35 1004.31 1004.36 1004.50 1004.75 1005.08 1005.50 1005.98 1006.50 1007.05 1007.64 1008.24 1008.87 1009.51 1010.17 1010.82 1011.45 1012.04 1012.55 1012.95 1013.25 1013.42 1013.46 1013.39 1013.23 1012.98
1009.68 1009.21 1008.66 1008.05 1007.43 1006.83 1006.28 1005.80 1005.40 1005.07 1004.78 1004.53 1004.28 1004.04 1003.79 1003.55 1003.34 1003.18 1003.09 1003.10 1003.21 1003.42 1003.73 1004.12 1004.57 1005.07 1005.60 1006.18 1006.78 1007.41 1008.07 1008.74 1009.41 1010.05 1010.63 1011.14 1011.55 1011.84 1012.01 1012.07 1012.01 1011.88 1011.67
1009.55 1009.04 1008.47 1007.87 1007.26 1006.67 1006.13 1005.63 1005.19 1004.78 1004.40 1004.02 1003.65 1003.27 1002.90 1002.55 1002.24 1002.01 1001.87 1001.84 1001.92 1002.10 1002.38 1002.74 1003.17 1003.65 1004.17 1004.73 1005.32 1005.96 1006.61 1007.29 1007.96 1008.60 1009.19 1009.70 1010.10 1010.39 1010.56 1010.61 1010.58 1010.47 1010.31
1009.30 1008.76 1008.18 1007.59 1007.01 1006.45 1005.92 1005.42 1004.94 1004.48 1004.01 1003.52 1003.03 1002.53 1002.03 1001.58 1001.19 1000.88 1000.69 1000.62 1000.67 1000.83 1001.09 1001.43 1001.83 1002.29 1002.79 1003.33 1003.91 1004.52 1005.17 1005.83 1006.49 1007.13 1007.71 1008.21 1008.61 1008.90 1009.07 1009.14 1009.12 1009.04 1008.92
1008.95 1008.38 1007.80 1007.22 1006.67 1006.13 1005.63 1005.14 1004.64 1004.13 1003.59 1003.02 1002.42 1001.81 1001.22 1000.67 1000.21 999.85 999.61 999.51 999.53 999.68 999.92 1000.24 1000.62 1001.04 1001.51 1002.02 1002.56 1003.15 1003.76 1004.40 1005.04 1005.65 1006.22 1006.72 1007.12 1007.41 1007.60 1007.69 1007.70 1007.66 1007.59
1008.53 1007.94 1007.35 1006.79 1006.25 1005.75 1005.27 1004.79 1004.28 1003.74 1003.15 1002.51 1001.84 1001.15 1000.48 999.87 999.34 998.94 998.68 998.55 998.56 998.68 998.90 999.20 999.55 999.94 1000.37 1000.83 1001.32 1001.85 1002.42 1003.02 1003.62 1004.21 1004.77 1005.26 1005.67 1005.98 1006.19 1006.32 1006.37 1006.38 1006.36
1008.08 1007.47 1006.87 1006.32 1005.81 1005.33 1004.87 1004.39 1003.89 1003.33 1002.70 1002.02 1001.29 1000.55 999.83 999.18 998.62 998.19 997.90 997.76 997.75 997.86 998.06 998.32 998.64 998.98 999.35 999.76 1000.19 1000.67 1001.18 1001.72 1002.29 1002.85 1003.40 1003.89 1004.31 1004.66 1004.91 1005.08 1005.19 1005.25 1005.28
1007.65 1007.01 1006.42 1005.87 1005.38 1004.91 1004.46 1004.00 1003.49 1002.92 1002.27 1001.56 1000.81 1000.04 999.30 998.62 998.04 997.60 997.29 997.13 997.11 997.19 997.35 997.58 997.85 998.14 998.45 998.80 999.17 999.58 1000.03 1000.53 1001.06 1001.60 1002.14 1002.64 1003.10 1003.48 1003.78 1004.01 1004.18 1004.29 1004.37
1007.27 1006.62 1006.03 1005.49 1005.00 1004.54 1004.10 1003.63 1003.11 1002.53 1001.87 1001.15 1000.39 999.61 998.86 998.17 997.59 997.13 996.81 996.63 996.57 996.62 996.75 996.92 997.14 997.37 997.63 997.91 998.22 998.58 998.99 999.44 999.95 1000.48 1001.02 1001.54 1002.03 1002.46 1002.82 1003.11 1003.33 1003.49 1003.62
1006.96 1006.31 1005.72 1005.18 1004.69 1004.23 1003.77 1003.29 1002.76 1002.16 1001.50 1000.77 1000.00 999.23 998.48 997.79 997.20 996.74 996.40 996.19 996.10 996.10 996.17 996.29 996.45 996.62 996.82 997.05 997.32 997.64 998.01 998.45 998.94 999.47 1000.02 1000.57 1001.10 1001.58 1001.99 1002.33 1002.60 1002.81 1002.96
1006.72 1006.07 1005.48 1004.93 1004.43 1003.95 1003.47 1002.96 1002.40 1001.78 1001.10 1000.37 999.60 998.83 998.09 997.41 996.82 996.34 995.98 995.74 995.60 995.54 995.56 995.62 995.72 995.85 996.00 996.19 996.43 996.72 997.09 997.52 998.01 998.56 999.13 999.71 1000.27 1000.79 1001.24 1001.63 1001.94 1002.17 1002.35
1006.51 1005.87 1005.26 1004.70 1004.17 1003.64 1003.12 1002.56 1001.96 1001.31 1000.61 999.87 999.10 998.34 997.61 996.94 996.35 995.86 995.48 995.20 995.02 994.91 994.87 994.88 994.93 995.01 995.14 995.30 995.53 995.82 996.19 996.63 997.14 997.71 998.30 998.91 999.50 1000.05 1000.54 1000.95 1001.28 1001.54 1001.72
Thickness
5722 5713 5703 5692 5682 5673 5665 5658 5649 5639 5630 5622 5614 5608 5602 5594 5587 5580 5574 5565 5557 5549 5540 5532 5524 5515 5508 5501 5493 5485 5477 5469 5461 5456 5456 5454 5449 5442 5434 5426 5420 5413 5406
5720 5712 5701 5691 5683 5676 5667 5659 5651 5642 5633 5625 5617 5609 5601 5595 5587 5578 5571 5563 5555 5546 5538 5529 5521 5512 5503 5495 5486 5477 5469 5462 5453 5447 5445 5447 5447 5439 5425 5415 5407 5399 5391
5715 5710 5699 5690 5682 5676 5669 5661 5653 5643 5634 5623 5612 5604 5596 5592 5585 5578 5571 5563 5554 5545 5535 5526 5517 5508 5499 5491 5481 5471 5462 5455 5446 5436 5430 5429 5433 5428 5419 5407 5396 5386 5378
5709 5705 5698 5689 5682 5676 5666 5658 5650 5641 5632 5621 5613 5607 5601 5598 5594 5583 5573 5562 5552 5543 5533 5523 5513 5504 5494 5485 5476 5465 5456 5446 5439 5430 5420 5413 5409 5401 5404 5399 5387 5376 5366
5703 5698 5693 5687 5680 5671 5663 5654 5646 5639 5630 5621 5614 5606 5603 5600 5592 5582 5573 5562 5552 5541 5531 5520 5510 5500 5490 5480 5470 5460 5449 5440 5431 5423 5414 5404 5395 5386 5379 5382 5378 5368 5357
5697 5693 5688 5682 5675 5667 5659 5651 5644 5638 5629 5620 5612 5606 5603 5597 5589 5582 5573 5561 5551 5540 5529 5517 5506 5496 5486 5475 5464 5453 5443 5433 5423 5414 5405 5396 5387 5380 5372 5367 5364 5358 5349
5689 5687 5683 5678 5672 5664 5656 5648 5641 5636 5628 5619 5612 5606 5601 5594 5588 5581 5570 5559 5549 5539 5529 5515 5504 5493 5482 5470 5458 5447 5437 5426 5416 5406 5397 5387 5378 5369 5361 5354 5350 5345 5339
5683 5680 5677 5674 5669 5663 5655 5647 5641 5635 5626 5618 5612 5604 5596 5588 5584 5577 5568 5559 5550 5539 5526 5513 5501 5490 5477 5464 5451 5440 5430 5419 5409 5399 5388 5378 5369 5358 5349 5341 5333 5330 5328
5674 5673 5671 5668 5664 5659 5653 5645 5638 5631 5624 5616 5608 5601 5593 5585 5580 5571 5562 5554 5545 5534 5521 5509 5496 5484 5471 5458 5446 5435 5424 5413 5402 5392 5380 5370 5360 5350 5340 5330 5320 5311 5310
5665 5663 5662 5659 5655 5651 5645 5639 5632 5627 5619 5611 5603 5597 5589 5581 5572 5563 5557 5549 5539 5527 5515 5504 5492 5479 5466 5453 5440 5430 5418 5406 5396 5384 5373 5363 5353 5342 5331 5321 5311 5301 5293
5652 5651 5650 5647 5644 5640 5635 5630 5623 5617 5611 5604 5597 5591 5584 5575 5566 5559 5553 5543 5532 5521 5509 5498 5485 5474 5461 5448 5436 5425 5413 5401 5389 5377 5366 5356 5344 5334 5324 5313 5303 5293 5283
5638 5638 5637 5636 5634 5631 5627 5621 5615 5609 5603 5597 5590 5584 5577 5568 5561 5556 5548 5536 5526 5515 5503 5491 5479 5468 5456 5443 5432 5420 5408 5397 5385 5373 5361 5350 5338 5327 5316 5306 5296 5287 5277
5626 5626 5625 5624 5623 5620 5617 5612 5606 5600 5594 5587 5581 5575 5569 5562 5556 5549 5539 5528 5518 5507 5495 5483 5473 5463 5451 5439 5427 5415 5403 5391 5379 5367 5356 5345 5332 5322 5311 5300 5290 5281 5271
5614 5613 5612 5612 5611 5609 5606 5602 5597 5591 5583 5576 5570 5566 5561 5554 5547 5539 5529 5519 5509 5499 5489 5477 5466 5455 5444 5432 5419 5407 5396 5385 5373 5361 5350 5339 5327 5317 5305 5295 5285 5275 5266
5602 5600 5599 5598 5598 5597 5594 5590 5585 5580 5572 5565 5560 5556 5550 5543 5536 5528 5520 5510 5501 5491 5480 5469 5459 5449 5438 5426 5413 5401 5390 5378 5367 5356 5345 5334 5323 5312 5300 5290 5281 5270 5261
5591 5589 5587 5585 5583 5581 5578 5575 5572 5567 5560 5554 5550 5545 5538 5532 5525 5518 5510 5502 5493 5483 5472 5462 5452 5443 5433 5422 5409 5394 5382 5372 5361 5351 5340 5329 5318 5308 5298 5289 5279 5269 5258
5580 5577 5575 5572 5568 5566 5562 5559 5555 5551 5546 5541 5537 5532 5527 5521 5515 5509 5501 5494 5485 5476 5467 5457 5447 5438 5429 5416 5404 5391 5377 5366 5357 5346 5335 5325 5315 5304 5294 5285 5276 5266 5256
5568 5565 5562 5559 5555 5551 5547 5543 5538 5535 5532 5529 5526 5522 5517 5512 5507 5500 5494 5487 5478 5469 5460 5451 5442 5432 5423 5410 5398 5386 5373 5363 5353 5342 5331 5321 5311 5300 5289 5279 5270 5262 5253
5555 5551 5548 5544 5541 5538 5534 5529 5527 5526 5524 5521 5518 5514 5509 5504 5499 5493 5487 5479 5471 5463 5454 5444 5435 5425 5416 5404 5392 5379 5369 5359 5349 5338 5326 5315 5305 5296 5285 5275 5267 5260 5253
5542 5538 5535 5532 5530 5527 5522 5517 5517 5517 5516 5513 5509 5504 5500 5496 5491 5486 5479 5471 5462 5454 5445 5436 5427 5418 5409 5398 5385 5374 5364 5355 5345 5334 5322 5311 5301 5291 5280 5270 5262 5256 5250
5528 5525 5522 5520 5518 5514 5509 5507 5508 5508 5506 5501 5497 5493 5490 5486 5481 5476 5469 5461 5452 5443 5435 5426 5418 5409 5401 5390 5379 5369 5358 5350 5339 5329 5319 5308 5297 5286 5276 5267 5258 5251 5243
5517 5513 5511 5509 5504 5499 5497 5499 5499 5497 5493 5489 5486 5483 5479 5475 5469 5463 5457 5449 5441 5432 5424 5416 5408 5400 5391 5381 5372 5363 5354 5343 5333 5324 5314 5303 5292 5282 5272 5263 5254 5245 5237
5505 5502 5499 5496 5493 5490 5487 5487 5488 5485 5481 5478 5475 5472 5468 5463 5457 5451 5445 5438 5430 5422 5414 5406 5399 5391 5381 5373 5364 5355 5346 5337 5327 5318 5307 5297 5286 5276 5266 5257 5248 5238 5230
5492 5489 5485 5484 5484 5481 5478 5476 5475 5472 5469 5466 5464 5461 5457 5453 5447 5440 5434 5427 5420 5412 5404 5396 5389 5382 5373 5364 5355 5346 5338 5330 5321 5311 5301 5290 5280 5269 5258 5250 5241 5232 5224
5478 5474 5470 5471 5472 5472 5470 5467 5464 5461 5458 5455 5452 5450 5445 5441 5436 5430 5423 5417 5410 5402 5394 5387 5380 5372 5366 5358 5348 5339 5331 5323 5314 5304 5293 5283 5273 5264 5255 5245 5236 5227 5219
5464 5462 5461 5461 5463 5462 5460 5458 5454 5450 5446 5444 5441 5438 5434 5429 5423 5419 5414 5407 5399 5392 5384 5377 5369 5363 5357 5349 5341 5332 5324 5315 5307 5297 5288 5279 5269 5260 5251 5241 5232 5223 5216